Flag for U.S.A. Weather past 2 weeks in Burbank, California, U.S.A.

Now
97 °F

Sunny.


Feels Like: 94 °F
Forecast: 69 / 97 °F
Wind: 13 mph from South

Location: Burbank-Glendale-Pasadena Airport

Current Time: Jul 24, 2014 at 4:30:46 PM

Latest Report: Jul 24, 2014 at 3:53 PM


Visibility: 10 mi

Pressure: 29.72 "Hg

Humidity: 21%

Dew point: 51 °F

Location of BurbankLocation

Historic Weather in Burbank — Graph

°F

Burbank temperature yesterday

Maximum temperature yesterday: 93 °F (at 12:53 PM)
Minimum temperature yesterday: 68 °F (at 4:53 AM)
Average temperature yesterday: 80 °F

Past Weeks' High & Low Weather Summary

 TemperatureHumidityPressure
High96 °F (Jul 24, 12:53 PM)87% (Jul 10, 3:53 AM)30.03 "Hg (Jul 10, 3:53 AM)
Low62 °F (Jul 18, 4:53 AM)20% (Jul 23, 4:53 PM)29.74 "Hg (Jul 24, 2:53 PM)
Average73 °F62%29.93 "Hg
* Reported Jul 9 2:53 PM — Jul 24 2:53 PM, Burbank, Weather by CustomWeather, © 2014

Note: Actual official high and low records may vary slightly from our data, if they occured in-between our weather recording intervals... More about our weather records

Advertising

Burbank weather history for previous 24 hours

 ConditionsComfort  
Time TempWeatherWind HumidityBarometerVisibility
2:53 PM
Jul 24
96 °FSunny.6 mph20%29.74 "Hg10 mi
1:53 PM95 °FSunny.12 mph26%29.76 "Hg10 mi
12:53 PM96 °FSunny.7 mph23%29.77 "Hg10 mi
11:53 AM94 °FSunny.No wind20%29.78 "Hg10 mi
10:53 AM92 °FSunny.3 mph21%29.80 "Hg10 mi
9:53 AM85 °FSunny.No wind31%29.82 "Hg10 mi
8:53 AM79 °FSunny.No wind39%29.83 "Hg10 mi
7:53 AM74 °FSunny.No wind45%29.85 "Hg10 mi
6:53 AM70 °FClear.No wind46%29.84 "Hg10 mi
5:53 AM67 °FClear.No wind53%29.83 "Hg10 mi
4:53 AM68 °FClear.No wind59%29.82 "Hg10 mi
3:53 AM70 °FClear.No wind55%29.82 "Hg10 mi
2:53 AM71 °FClear.No wind63%29.83 "Hg10 mi
1:53 AM72 °FClear.3 mph61%29.84 "Hg10 mi
12:53 AM73 °FClear.3 mph59%29.86 "Hg10 mi
11:53 PM
Jul 23
75 °FClear.5 mph55%29.86 "Hg10 mi
10:53 PM76 °FClear.7 mph54%29.86 "Hg10 mi
9:53 PM79 °FClear.6 mph47%29.85 "Hg10 mi
8:53 PM81 °FSunny.5 mph44%29.84 "Hg10 mi
7:53 PM84 °FSunny.6 mph37%29.84 "Hg10 mi
6:53 PM87 °FSunny.13 mph31%29.84 "Hg10 mi
5:53 PM91 °FSunny.13 mph22%29.84 "Hg10 mi
4:53 PM91 °FSunny.9 mph20%29.85 "Hg10 mi
Weather by CustomWeather, © 2014

See weather overviewHow to use our weather pages